TimePST,TemperatureF,Dew PointF,Humidity,Sea Level PressureIn,VisibilityMPH,Wind Direction,Wind SpeedMPH,Gust SpeedMPH,PrecipitationIn,Events,Conditions,WindDirDegrees,DateUTC
12:15 AM,26.6,23.0,86,29.79,10.0,North,12.7,-,N/A,,Clear,350,2013-02-20 08:15:00
12:35 AM,26.6,23.0,86,29.80,10.0,North,12.7,-,N/A,,Clear,360,2013-02-20 08:35:00
12:55 AM,26.6,23.0,86,29.80,10.0,North,12.7,-,N/A,,Scattered Clouds,350,2013-02-20 08:55:00
1:15 AM,24.8,21.2,86,29.81,10.0,North,11.5,17.3,N/A,,Mostly Cloudy,350,2013-02-20 09:15:00
1:35 AM,26.6,23.0,86,29.82,10.0,North,11.5,-,N/A,,Mostly Cloudy,360,2013-02-20 09:35:00
1:55 AM,26.6,23.0,86,29.83,10.0,North,11.5,18.4,N/A,,Overcast,10,2013-02-20 09:55:00
2:15 AM,26.6,23.0,86,29.84,10.0,North,12.7,-,N/A,,Overcast,360,2013-02-20 10:15:00
2:35 AM,26.6,23.0,86,29.84,10.0,North,13.8,-,N/A,,Overcast,10,2013-02-20 10:35:00
2:55 AM,26.6,23.0,86,29.85,10.0,North,13.8,-,N/A,,Overcast,10,2013-02-20 10:55:00
3:15 AM,26.6,23.0,86,29.85,10.0,NNE,11.5,17.3,N/A,,Overcast,20,2013-02-20 11:15:00
3:35 AM,26.6,23.0,86,29.84,10.0,North,10.4,-,N/A,,Overcast,10,2013-02-20 11:35:00
4:15 AM,26.6,21.2,80,29.85,10.0,North,12.7,-,N/A,,Overcast,10,2013-02-20 12:15:00
4:35 AM,24.8,21.2,86,29.85,10.0,North,12.7,16.1,N/A,,Overcast,10,2013-02-20 12:35:00
4:55 AM,24.8,21.2,86,29.86,10.0,North,9.2,-,N/A,,Overcast,10,2013-02-20 12:55:00
5:15 AM,26.6,21.2,80,29.88,10.0,North,6.9,-,N/A,,Overcast,10,2013-02-20 13:15:00
5:35 AM,26.6,21.2,80,29.88,10.0,North,10.4,-,N/A,,Overcast,350,2013-02-20 13:35:00
5:55 AM,26.6,21.2,80,29.90,10.0,North,11.5,-,N/A,,Overcast,360,2013-02-20 13:55:00
6:15 AM,26.6,19.4,74,29.91,10.0,North,11.5,-,N/A,,Overcast,10,2013-02-20 14:15:00
6:35 AM,26.6,21.2,80,29.91,10.0,North,12.7,-,N/A,,Overcast,360,2013-02-20 14:35:00
6:55 AM,26.6,21.2,80,29.92,10.0,North,11.5,-,N/A,,Overcast,360,2013-02-20 14:55:00
7:15 AM,26.6,21.2,80,29.92,10.0,North,11.5,-,N/A,,Overcast,10,2013-02-20 15:15:00
7:35 AM,26.6,19.4,74,29.92,10.0,North,12.7,-,N/A,,Mostly Cloudy,10,2013-02-20 15:35:00
7:55 AM,26.6,21.2,80,29.93,10.0,North,16.1,-,N/A,,Partly Cloudy,360,2013-02-20 15:55:00
8:15 AM,28.4,21.2,74,29.94,10.0,North,15.0,-,N/A,,Scattered Clouds,10,2013-02-20 16:15:00
8:35 AM,28.4,21.2,74,29.94,10.0,North,15.0,-,N/A,,Mostly Cloudy,360,2013-02-20 16:35:00
8:55 AM,28.4,21.2,74,29.95,10.0,North,11.5,-,N/A,,Overcast,350,2013-02-20 16:55:00
9:15 AM,28.4,19.4,69,29.95,10.0,North,12.7,17.3,N/A,,Scattered Clouds,360,2013-02-20 17:15:00
9:35 AM,28.4,21.2,74,29.95,10.0,North,11.5,17.3,N/A,,Scattered Clouds,360,2013-02-20 17:35:00
9:55 AM,28.4,19.4,69,29.95,10.0,North,11.5,-,N/A,,Scattered Clouds,360,2013-02-20 17:55:00
10:15 AM,30.2,19.4,64,29.96,10.0,North,12.7,-,N/A,,Mostly Cloudy,350,2013-02-20 18:15:00
10:35 AM,28.4,17.6,64,29.96,10.0,NNE,9.2,17.3,N/A,,Overcast,20,2013-02-20 18:35:00
10:55 AM,30.2,19.4,64,29.97,10.0,NNE,11.5,-,N/A,,Mostly Cloudy,20,2013-02-20 18:55:00
11:15 AM,30.2,19.4,64,29.96,10.0,NE,6.9,-,N/A,,Partly Cloudy,40,2013-02-20 19:15:00
11:35 AM,32.0,19.4,60,29.96,10.0,NNE,11.5,-,N/A,,Clear,30,2013-02-20 19:35:00
11:55 AM,32.0,19.4,60,29.96,10.0,NE,9.2,-,N/A,,Clear,40,2013-02-20 19:55:00
12:15 PM,32.0,19.4,60,29.96,10.0,NNE,8.1,-,N/A,,Clear,30,2013-02-20 20:15:00
12:35 PM,33.8,17.6,52,29.95,10.0,NNE,5.8,-,N/A,,Clear,30,2013-02-20 20:35:00
12:55 PM,32.0,17.6,55,29.93,10.0,Calm,Calm,-,N/A,,Clear,0,2013-02-20 20:55:00
1:15 PM,33.8,17.6,52,29.93,10.0,SSW,6.9,-,N/A,,Clear,210,2013-02-20 21:15:00
1:35 PM,35.6,17.6,48,29.93,10.0,South,6.9,-,N/A,,Clear,190,2013-02-20 21:35:00
1:55 PM,35.6,17.6,48,29.93,10.0,SSW,8.1,-,N/A,,Clear,210,2013-02-20 21:55:00
2:15 PM,33.8,17.6,52,29.94,10.0,South,5.8,-,N/A,,Clear,180,2013-02-20 22:15:00
2:35 PM,33.8,17.6,52,29.93,10.0,SE,5.8,-,N/A,,Clear,140,2013-02-20 22:35:00
2:55 PM,33.8,19.4,56,29.93,10.0,SE,5.8,-,N/A,,Clear,130,2013-02-20 22:55:00
3:15 PM,33.8,21.2,60,29.92,10.0,SE,8.1,-,N/A,,Clear,140,2013-02-20 23:15:00
3:35 PM,32.0,19.4,60,29.92,10.0,SSE,8.1,-,N/A,,Scattered Clouds,160,2013-02-20 23:35:00
3:55 PM,33.8,19.4,56,29.92,10.0,South,10.4,-,N/A,,Scattered Clouds,170,2013-02-20 23:55:00
4:15 PM,30.2,21.2,69,29.92,10.0,South,9.2,-,N/A,,Scattered Clouds,180,2013-02-21 00:15:00
4:35 PM,30.2,21.2,69,29.91,10.0,South,9.2,-,N/A,,Overcast,180,2013-02-21 00:35:00
4:55 PM,30.2,19.4,64,29.92,10.0,South,8.1,-,N/A,,Overcast,190,2013-02-21 00:55:00
5:15 PM,28.4,19.4,69,29.92,10.0,South,8.1,-,N/A,,Overcast,190,2013-02-21 01:15:00
5:35 PM,26.6,19.4,74,29.92,10.0,South,6.9,-,N/A,,Overcast,170,2013-02-21 01:35:00
5:55 PM,26.6,19.4,74,29.93,10.0,SSE,5.8,-,N/A,,Overcast,160,2013-02-21 01:55:00
6:15 PM,26.6,19.4,74,29.92,10.0,Calm,Calm,-,N/A,,Mostly Cloudy,0,2013-02-21 02:15:00
6:35 PM,26.6,21.2,80,29.92,10.0,SSE,8.1,-,N/A,,Mostly Cloudy,160,2013-02-21 02:35:00
6:55 PM,26.6,21.2,80,29.92,10.0,SSE,9.2,-,N/A,,Scattered Clouds,160,2013-02-21 02:55:00
7:15 PM,26.6,21.2,80,29.92,10.0,SSE,8.1,-,N/A,,Scattered Clouds,160,2013-02-21 03:15:00
7:35 PM,26.6,21.2,80,29.92,10.0,SSE,8.1,-,N/A,,Mostly Cloudy,150,2013-02-21 03:35:00
7:55 PM,26.6,23.0,86,29.92,10.0,SSE,9.2,-,N/A,,Overcast,150,2013-02-21 03:55:00
8:15 PM,26.6,23.0,86,29.93,10.0,SSE,8.1,-,N/A,,Overcast,160,2013-02-21 04:15:00
8:35 PM,26.6,23.0,86,29.93,10.0,SSE,6.9,-,N/A,,Overcast,150,2013-02-21 04:35:00
8:55 PM,26.6,23.0,86,29.94,10.0,SSE,8.1,-,N/A,,Overcast,160,2013-02-21 04:55:00
9:15 PM,28.4,23.0,80,29.93,10.0,SSE,9.2,-,N/A,,Overcast,150,2013-02-21 05:15:00
9:35 PM,28.4,21.2,74,29.94,10.0,SSE,5.8,-,N/A,,Overcast,150,2013-02-21 05:35:00
9:55 PM,26.6,23.0,86,29.94,10.0,SSE,5.8,-,N/A,,Overcast,160,2013-02-21 05:55:00
10:15 PM,26.6,21.2,80,29.94,10.0,South,6.9,-,N/A,,Overcast,170,2013-02-21 06:15:00
10:35 PM,26.6,21.2,80,29.94,10.0,South,4.6,-,N/A,,Overcast,190,2013-02-21 06:35:00
10:55 PM,26.6,21.2,80,29.95,10.0,Calm,Calm,-,N/A,,Mostly Cloudy,0,2013-02-21 06:55:00
11:15 PM,24.8,21.2,86,29.95,10.0,Calm,Calm,-,N/A,,Mostly Cloudy,0,2013-02-21 07:15:00
11:35 PM,24.8,21.2,86,29.94,10.0,WNW,4.6,-,N/A,,Scattered Clouds,300,2013-02-21 07:35:00
11:55 PM,23.0,21.2,93,29.95,10.0,NNW,5.8,-,N/A,,Scattered Clouds,330,2013-02-21 07:55:00